Flag for China Weather past 2 weeks in Tsingtao, Shandong, China

Now
70 °F

Haze.


Feels Like: 70 °F
Forecast: 49 / 58 °F
Wind: 8 mph from South

Location: Qingdao Airport

Current Time: Mar 29, 2015 at 2:27:32 PM

Latest Report: Mar 29, 2015 at 1:00 PM


Visibility: 3 mi

Pressure: 30.04 "Hg

Humidity: 29%

Dew point: 36 °F

Location of TsingtaoLocation

Historic Weather in Tsingtao — Graph

°F

Tsingtao temperature yesterday

Maximum temperature yesterday: 59 °F (at 1:00 PM)
Minimum temperature yesterday: 48 °F (at 12:00 AM)
Average temperature yesterday: 53 °F

Past Weeks' High & Low Weather Summary

 TemperatureHumidityPressure
High70 °F (Mar 21, 12:00 PM)94% (Mar 17, 5:00 AM)30.54 "Hg (Mar 17, 5:00 AM)
Low36 °F (Mar 23, 6:00 AM)7% (Mar 21, 3:00 PM)29.83 "Hg (Mar 18, 3:00 PM)
Average51 °F48%30.19 "Hg
* Reported Mar 14 1:00 PM — Mar 29 1:00 PM, Tsingtao, Weather by CustomWeather, © 2015

Note: Actual official high and low records may vary slightly from our data, if they occured in-between our weather recording intervals... More about our weather records

Advertising

Tsingtao weather history for previous 24 hours

 ConditionsComfort  
Time TempWeatherWind HumidityBarometerVisibility
1:00 PM
Sun, Mar 29
70 °FHaze.8 mph29%30.04 "Hg3 mi
12:00 PM64 °FHaze.10 mph40%30.07 "Hg2 mi
11:00 AM64 °FHaze.8 mph46%30.07 "Hg2 mi
10:00 AM66 °FClear.3 mph35%30.09 "Hg2 mi
9:00 AM61 °FClear.3 mph45%30.09 "Hg2 mi
8:00 AM55 °FClear.3 mph67%30.07 "Hg1 mi
7:00 AM50 °FFog.3 mph82%30.07 "Hg1 mi
6:00 AM46 °FFog.1 mph87%30.04 "Hg1 mi
5:00 AM46 °FFog.1 mph87%30.04 "Hg1 mi
4:00 AM48 °FFog.1 mph87%30.01 "Hg1 mi
3:00 AM48 °FFog.1 mph87%30.01 "Hg1 mi
2:00 AM50 °FFog.1 mph88%30.01 "Hg1 mi
1:00 AM52 °FFog.1 mph88%30.01 "Hg1 mi
12:00 AM50 °FFog.No wind88%30.01 "Hg1 mi
11:00 PM
Sat, Mar 28
52 °FFog.1 mph82%29.98 "Hg1 mi
10:00 PM54 °FFog.3 mph82%29.98 "Hg1 mi
9:00 PM52 °FFog.1 mph82%29.98 "Hg1 mi
8:00 PM55 °FFog.1 mph72%29.98 "Hg2 mi
7:00 PM57 °FHaze.1 mph72%29.95 "Hg2 mi
6:00 PM59 °FHaze.3 mph68%29.92 "Hg1 mi
5:00 PM59 °FHaze.8 mph68%29.89 "Hg1 mi
4:00 PM59 °FHaze.10 mph68%29.89 "Hg1 mi
3:00 PM57 °FHaze.17 mph72%29.89 "Hg1 mi
2:00 PM57 °FHaze.15 mph72%29.92 "Hg1 mi
Weather by CustomWeather, © 2015

See weather overviewHow to use our weather pages